Hourly Data Report for April 15, 2012

HALIFAX STANFIELD INT'L A
NOVA SCOTIA

44°52'48.060" N
63°30'00.050" W
145.40 m
8202250
71395
YHZ

Download Data

Hourly Data (April 2012)
Hourly Data Report for April 15, 2012
TIME
LST
Temp Definition
°C
Dew Point Definition
°C
Rel Hum Definition
%
Precip. Amount Definition
mm

Wind Dir Definition
10's deg

Wind Spd Definition
km/h
Visibility Definition
km
Stn Press Definition
kPa
Hmdx Definition


Wind Chill Definition


Weather Definition


00:00 5.5 -2.5 56   25 11 24.1 99.68     Clear
01:00 4.8 -2.7 58   28 11 24.1 99.75     Clear
02:00 2.6 -3.3 65   28 9 24.1 99.78     Mainly Clear
03:00 3.8 -3.3 60   28 6 24.1 99.81     Mainly Clear
04:00 6.0 -3.8 49   1 4 24.1 99.82     Mainly Clear
05:00 5.5 -3.5 52   5 4 24.1 99.84     Mainly Clear
06:00 5.0 -3.5 54   6 9 24.1 99.86     Mainly Clear
07:00 8.0 -4.0 42   10 9 24.1 99.93     Mostly Cloudy
08:00 9.5 -2.7 42   14 7 24.1 99.99     Mostly Cloudy
09:00 12.0 -6.0 28   14 22 24.1 100.03     Mostly Cloudy
10:00 14.0 -3.8 29   15 28 24.1 100.01     Mainly Clear
11:00 14.3 -3.3 29   16 26 24.1 99.97     Mainly Clear
12:00 14.8 -1.8 32   15 24 24.1 99.97     Mostly Cloudy
13:00 15.1 0.8 38   16 30 24.1 99.92     Mostly Cloudy
14:00 15.0 1.5 40   17 26 24.1 99.86     Mainly Clear
15:00 14.8 2.6 44   17 26 24.1 99.82     Mainly Clear
16:00 14.1 4.6 53   16 24 24.1 99.85     Mainly Clear
17:00 11.3 5.4 67   15 28 24.1 99.94     Mainly Clear
18:00 7.8 5.5 85   14 28 24.1 99.99     Mostly Cloudy
19:00 6.6 5.6 93   15 32 16.1 100.01     Mostly Cloudy
20:00 5.9 5.3 96   14 20 8.0 100.11     Fog
21:00 5.1 4.9 99   15 26 1.6 100.12     Fog
22:00 4.8 4.6 99   15 22 3.2 100.14     Fog
23:00 4.1 4.0 99   16 17 0.6 100.16     Fog

Notes on Data Quality.

Legend

  • E = Estimated
  • M = Missing
  • NA = Not Available*
  • [empty] = Indicates an unobserved value
Date modified: